Find Starlink 30088

NORAD ID: 57462 Int'l Des: 2023-107 Owner: SPXS Country: US Constellation: starlink operational
LEOCIRCULAR

Current View

Loading 3D Globe...

About Starlink 30088

Starlink 30088 (NORAD 57462) is a starlink constellation satellite (v2 mini) launched Jul 28, 2023 by SPXS of US. It operates in LEO, CIRCULAR orbit with a mass of 730.00 kg.

Upcoming Passes

Passes for default location (London). Set your location on the main map for personalized predictions.

Altitude History

Loading altitude history...

Two-Line Element Set

1 57462U 23107F 26237.90706968 -.00000670 00000-0 -14820-4 0 9996
2 57462 43.0013 100.7155 0001432 259.7916 100.2774 15.27569947171022
Epoch: Aug 25, 2026 • Age: 8 hours

Current Status

Altitude 482.6 km
Apogee / Perigee N/A
Velocity 7.63 km/s
Sub-Earth Point 4.27°N, 44.29°E
Launch Date Jul 28, 2023
Age 3 years
Type internet

Technical Details

Classification Payload
Mass 730.00 kg
Dry Mass 700.00 kg
Total Mass 730.00 kg
Length 0.30 m
Diameter 4.10 m
Span 29.00 m
Shape Box + pan
Manufacturer SPXS
Bus Type Starlink V2M
Phase Status In Orbit
Owner/State SPXS/US

Most Searched